Simultaneous Nadir Overpasses (SNOs) Predictions

Prediction of SNOs between LANDSAT-8 and METOP-B Satellite Orbit:

Table of predicted SNOs for the next 14.0 days since TLE Epoch: 5/8/2015
Index Date (LANDSAT-8) Time (LANDSAT-8) Lat,Lon (LANDSAT-8) SZA (LANDSAT-8 ) Date (METOP-B) Time (METOP-B) Lat,Lon (METOP-B) SZA (METOP-B ) Distance(km) Time Diff (sec)
1 05/10/2015 14:12:16 -81.02,-175.48 114.61 05/10/2015 14:11:57 -81.02,-175.66 114.63 3.17 19
2 05/10/2015 15:01:41 81.05, -7.40 65.46 05/10/2015 15:02:35 81.05, -7.45 65.48 0.90 54
3 05/13/2015 09:46:27 -81.04,-108.69 115.26 05/13/2015 09:46:16 -81.05,-108.54 115.25 2.73 11
4 05/13/2015 10:35:52 81.07, 59.37 64.80 05/13/2015 10:36:55 81.07, 59.31 64.82 1.24 63
5 05/16/2015 05:20:39 -81.04, -42.24 115.93 05/16/2015 05:20:37 -81.04, -42.20 115.93 0.69 2
6 05/16/2015 06:10:04 81.07, 125.79 64.12 05/16/2015 06:11:16 81.06, 125.63 64.13 2.94 72
7 05/19/2015 00:05:24 81.02,-143.76 63.40 05/19/2015 00:04:17 81.02,-143.70 63.37 1.06 67
8 05/19/2015 00:54:50 -81.04, 24.22 116.56 05/19/2015 00:54:57 -81.04, 24.07 116.58 2.80 7
9 05/21/2015 19:39:36 81.02, -77.29 62.81 05/21/2015 19:38:37 81.02, -77.11 62.81 3.15 59




NCC Satellite Simultaneous Nadir Overpasses (SNOs) Prediction Service
